UVA8368 DNAA-DNMM

Flight info

Callsign UVA8368
Flight time 0h 50m
Altitude 36000
Route IKSEM1Q IKSEM DCT VONUK UH340 ERSED ERSED1N
Aircraft E195/M-SDE3GILORVW/S

Departure

Time 2026-05-01 11:22
Airport Nnamdi Azikiwe International Airport (DNAA)

Arrival

Time 2026-05-01 12:12
Airport Murtala Muhammed International Airport (DNMM)
Time Latitude Longitude Altitude Speed Heading
2026-05-01 11:06 9.01073 7.27053 1127 ft 0 kts 35°
2026-05-01 11:16 9.01074 7.27053 1127 ft 0 kts 35°
2026-05-01 11:16 9.01080 7.27057 1127 ft 2 kts 35°
2026-05-01 11:16 9.01097 7.27069 1127 ft 3 kts 35°
2026-05-01 11:16 9.01118 7.27072 1127 ft 4 kts 318°
2026-05-01 11:17 9.01144 7.27051 1127 ft 5 kts 335°
2026-05-01 11:17 9.01181 7.27065 1127 ft 6 kts 25°
2026-05-01 11:17 9.01229 7.27081 1127 ft 7 kts 28°
2026-05-01 11:17 9.01278 7.27112 1127 ft 8 kts 34°
2026-05-01 11:18 9.01330 7.27149 1127 ft 9 kts 35°
2026-05-01 11:18 9.01390 7.27191 1127 ft 10 kts 35°
2026-05-01 11:18 9.01458 7.27204 1128 ft 11 kts 325°
2026-05-01 11:18 9.01510 7.27140 1127 ft 12 kts 306°
2026-05-01 11:19 9.01565 7.27064 1127 ft 14 kts 306°
2026-05-01 11:19 9.01653 7.27025 1127 ft 15 kts 21°
2026-05-01 11:19 9.01746 7.27085 1128 ft 16 kts 36°
2026-05-01 11:19 9.01841 7.27152 1128 ft 17 kts 28°
2026-05-01 11:20 9.01955 7.27191 1128 ft 15 kts 14°
2026-05-01 11:20 9.01989 7.27233 1128 ft 5 kts 124°
2026-05-01 11:20 9.01976 7.27234 1128 ft 1 kts 223°
2026-05-01 11:20 9.01952 7.27216 1128 ft 10 kts 215°
2026-05-01 11:21 9.01694 7.27036 1128 ft 81 kts 215°
2026-05-01 11:21 9.01139 7.26644 1126 ft 120 kts 215°
2026-05-01 11:21 9.00293 7.26043 1134 ft 171 kts 214°
2026-05-01 11:21 8.99277 7.25340 1515 ft 187 kts 213°
2026-05-01 11:22 8.98224 7.24550 2125 ft 194 kts 218°
2026-05-01 11:22 8.97112 7.23750 2823 ft 205 kts 212°
2026-05-01 11:22 8.95821 7.22981 3319 ft 229 kts 207°
2026-05-01 11:22 8.94554 7.21902 3920 ft 250 kts 236°
2026-05-01 11:23 8.93566 7.20397 4614 ft 268 kts 236°
2026-05-01 11:23 8.92458 7.18797 5215 ft 289 kts 234°
2026-05-01 11:23 8.91265 7.17126 5983 ft 301 kts 234°
2026-05-01 11:23 8.90026 7.15415 6877 ft 307 kts 233°
2026-05-01 11:24 8.88759 7.13677 7819 ft 310 kts 233°
2026-05-01 11:24 8.87476 7.11921 8746 ft 312 kts 233°
2026-05-01 11:24 8.84888 7.08387 10444 ft 320 kts 233°
2026-05-01 11:25 8.83552 7.06563 11216 ft 326 kts 233°
2026-05-01 11:25 8.80789 7.02792 12510 ft 345 kts 233°
2026-05-01 11:25 8.79353 7.00832 13237 ft 351 kts 233°
2026-05-01 11:26 8.77884 6.98828 14019 ft 355 kts 233°
2026-05-01 11:26 8.74949 6.94825 15554 ft 361 kts 233°
2026-05-01 11:26 8.73437 6.92764 16307 ft 365 kts 232°
2026-05-01 11:27 8.71928 6.90706 17008 ft 368 kts 232°
2026-05-01 11:27 8.70405 6.88631 17701 ft 372 kts 232°
2026-05-01 11:27 8.68851 6.86512 18353 ft 378 kts 232°
2026-05-01 11:27 8.67280 6.84373 19010 ft 382 kts 232°
2026-05-01 11:28 8.65696 6.82213 19664 ft 387 kts 232°
2026-05-01 11:28 8.64085 6.80019 20292 ft 391 kts 232°
2026-05-01 11:28 8.62448 6.77789 20936 ft 395 kts 232°
2026-05-01 11:29 8.59146 6.73293 22125 ft 404 kts 232°
2026-05-01 11:29 8.57474 6.71018 22717 ft 408 kts 232°
2026-05-01 11:29 8.54068 6.66381 24000 ft 413 kts 232°
2026-05-01 11:30 8.52351 6.64045 24590 ft 415 kts 232°
2026-05-01 11:30 8.50635 6.61710 25168 ft 417 kts 232°
2026-05-01 11:30 8.48901 6.59352 25740 ft 419 kts 232°
2026-05-01 11:30 8.47157 6.56980 26295 ft 421 kts 232°
2026-05-01 11:31 8.45414 6.54610 26814 ft 424 kts 232°
2026-05-01 11:31 8.43651 6.52213 27332 ft 426 kts 232°
2026-05-01 11:31 8.41902 6.49838 27827 ft 428 kts 232°
2026-05-01 11:31 8.40112 6.47404 28337 ft 430 kts 232°
2026-05-01 11:32 8.38467 6.44900 28813 ft 433 kts 240°
2026-05-01 11:32 8.37049 6.42220 29269 ft 436 kts 241°
2026-05-01 11:32 8.35613 6.39509 29710 ft 440 kts 241°
2026-05-01 11:32 8.34166 6.36785 30116 ft 443 kts 240°
2026-05-01 11:33 8.32689 6.34004 30539 ft 447 kts 240°
2026-05-01 11:33 8.31225 6.31251 30943 ft 450 kts 240°
2026-05-01 11:33 8.29739 6.28458 31355 ft 453 kts 240°
2026-05-01 11:33 8.28255 6.25667 31806 ft 455 kts 240°
2026-05-01 11:34 8.26751 6.22840 32309 ft 455 kts 240°
2026-05-01 11:34 8.25260 6.20038 32828 ft 455 kts 240°
2026-05-01 11:34 8.23779 6.17255 33417 ft 453 kts 240°
2026-05-01 11:34 8.22281 6.14442 34053 ft 451 kts 240°
2026-05-01 11:35 8.20806 6.11672 34662 ft 448 kts 240°
2026-05-01 11:35 8.19345 6.08928 35232 ft 447 kts 240°
2026-05-01 11:35 8.17882 6.06183 35783 ft 445 kts 240°
2026-05-01 11:35 8.16415 6.03429 35926 ft 441 kts 240°
2026-05-01 11:36 8.14956 6.00691 35967 ft 451 kts 240°
2026-05-01 11:36 8.11938 5.95030 35973 ft 470 kts 240°
2026-05-01 11:37 8.08811 5.89166 35965 ft 474 kts 240°
2026-05-01 11:37 8.05711 5.83355 35971 ft 472 kts 240°
2026-05-01 11:38 8.02597 5.77521 35980 ft 472 kts 240°
2026-05-01 11:38 7.99496 5.71713 35981 ft 471 kts 240°
2026-05-01 11:39 7.96387 5.65895 35982 ft 472 kts 240°
2026-05-01 11:39 7.93274 5.60073 35979 ft 472 kts 240°
2026-05-01 11:40 7.90149 5.54230 35978 ft 473 kts 240°
2026-05-01 11:40 7.87035 5.48412 35981 ft 472 kts 240°
2026-05-01 11:41 7.83915 5.42583 35985 ft 472 kts 240°
2026-05-01 11:41 7.80801 5.36769 35987 ft 472 kts 240°
2026-05-01 11:42 7.77686 5.30955 35985 ft 473 kts 240°
2026-05-01 11:42 7.74591 5.25180 35976 ft 459 kts 240°
2026-05-01 11:43 7.71578 5.19562 35984 ft 453 kts 240°
2026-05-01 11:43 7.68574 5.13960 35453 ft 458 kts 240°
2026-05-01 11:44 7.65568 5.08360 34465 ft 456 kts 240°
2026-05-01 11:44 7.64056 5.05542 33961 ft 458 kts 240°
2026-05-01 11:44 7.62537 5.02714 33455 ft 460 kts 240°
2026-05-01 11:44 7.61017 4.99883 32943 ft 462 kts 240°
2026-05-01 11:45 7.59490 4.97039 32457 ft 464 kts 240°
2026-05-01 11:45 7.57941 4.94156 31936 ft 463 kts 240°
2026-05-01 11:45 7.56437 4.91356 31426 ft 459 kts 240°
2026-05-01 11:45 7.54918 4.88529 30920 ft 454 kts 240°
2026-05-01 11:46 7.53428 4.85757 30418 ft 450 kts 240°
2026-05-01 11:46 7.51947 4.83003 29918 ft 447 kts 240°
2026-05-01 11:46 7.50481 4.80275 29425 ft 443 kts 240°
2026-05-01 11:46 7.49005 4.77530 28928 ft 440 kts 240°
2026-05-01 11:47 7.47565 4.74855 28449 ft 436 kts 240°
2026-05-01 11:47 7.46131 4.72187 27969 ft 434 kts 240°
2026-05-01 11:47 7.44698 4.69526 27486 ft 431 kts 240°
2026-05-01 11:47 7.43269 4.66870 27006 ft 428 kts 240°
2026-05-01 11:48 7.41864 4.64258 26532 ft 426 kts 240°
2026-05-01 11:48 7.40463 4.61656 26064 ft 423 kts 240°
2026-05-01 11:48 7.39058 4.59047 25593 ft 421 kts 240°
2026-05-01 11:48 7.37666 4.56463 25123 ft 419 kts 240°
2026-05-01 11:49 7.36284 4.53896 24663 ft 416 kts 240°
2026-05-01 11:49 7.34915 4.51356 24205 ft 413 kts 240°
2026-05-01 11:49 7.33556 4.48834 23752 ft 411 kts 240°
2026-05-01 11:49 7.32194 4.46305 23288 ft 409 kts 240°
2026-05-01 11:50 7.30846 4.43805 22840 ft 407 kts 240°
2026-05-01 11:50 7.29496 4.41301 22386 ft 404 kts 240°
2026-05-01 11:50 7.28155 4.38813 21942 ft 401 kts 240°
2026-05-01 11:50 7.26835 4.36365 21502 ft 398 kts 240°
2026-05-01 11:51 7.25524 4.33934 21059 ft 394 kts 240°
2026-05-01 11:51 7.24214 4.31505 20624 ft 390 kts 240°
2026-05-01 11:51 7.22926 4.29119 20199 ft 387 kts 240°
2026-05-01 11:51 7.21760 4.26686 19774 ft 385 kts 244°
2026-05-01 11:52 7.20679 4.24254 19354 ft 383 kts 244°
2026-05-01 11:52 7.19581 4.21798 18923 ft 380 kts 244°
2026-05-01 11:52 7.18516 4.19419 18513 ft 377 kts 244°
2026-05-01 11:52 7.17429 4.16996 18084 ft 374 kts 244°
2026-05-01 11:53 7.16378 4.14651 17678 ft 371 kts 244°
2026-05-01 11:53 7.15312 4.12273 17264 ft 368 kts 244°
2026-05-01 11:53 7.14269 4.09949 16864 ft 366 kts 244°
2026-05-01 11:53 7.13215 4.07599 16456 ft 365 kts 244°
2026-05-01 11:54 7.12188 4.05310 16056 ft 363 kts 244°
2026-05-01 11:54 7.11147 4.02991 15648 ft 362 kts 244°
2026-05-01 11:54 7.10116 4.00694 15247 ft 359 kts 244°
2026-05-01 11:54 7.09094 3.98417 14855 ft 358 kts 244°
2026-05-01 11:55 7.08066 3.96127 14455 ft 356 kts 245°
2026-05-01 11:55 7.07053 3.93870 14064 ft 355 kts 245°
2026-05-01 11:55 7.06030 3.91593 13668 ft 354 kts 245°
2026-05-01 11:55 7.05031 3.89369 13280 ft 352 kts 245°
2026-05-01 11:56 7.04014 3.87105 12886 ft 352 kts 245°
2026-05-01 11:56 7.03007 3.84863 12496 ft 350 kts 245°
2026-05-01 11:56 7.02006 3.82635 12109 ft 350 kts 245°
2026-05-01 11:56 7.01012 3.80424 11722 ft 350 kts 245°
2026-05-01 11:57 7.00015 3.78206 11339 ft 347 kts 245°
2026-05-01 11:57 6.99027 3.76009 10955 ft 342 kts 245°
2026-05-01 11:57 6.98048 3.73832 10576 ft 337 kts 245°
2026-05-01 11:57 6.97094 3.71711 10203 ft 331 kts 245°
2026-05-01 11:58 6.96145 3.69601 9838 ft 327 kts 245°
2026-05-01 11:58 6.95226 3.67556 9492 ft 322 kts 245°
2026-05-01 11:58 6.93375 3.63442 8810 ft 321 kts 245°
2026-05-01 11:59 6.92456 3.61400 8432 ft 318 kts 245°
2026-05-01 11:59 6.91557 3.59404 8080 ft 315 kts 245°
2026-05-01 11:59 6.90656 3.57402 7742 ft 311 kts 246°
2026-05-01 12:00 6.90009 3.55964 7484 ft 310 kts 246°
2026-05-01 12:05 6.89669 3.55209 7357 ft 309 kts 246°
2026-05-01 12:05 6.87916 3.51316 6683 ft 303 kts 246°
2026-05-01 12:05 6.87053 3.49400 6348 ft 302 kts 246°
2026-05-01 12:06 6.86190 3.47483 6019 ft 298 kts 246°
2026-05-01 12:06 6.85339 3.45594 5692 ft 296 kts 246°
2026-05-01 12:06 6.84495 3.43721 5362 ft 294 kts 246°
2026-05-01 12:06 6.83652 3.41850 5037 ft 291 kts 246°
2026-05-01 12:07 6.82823 3.40013 4726 ft 288 kts 245°
2026-05-01 12:07 6.81763 3.38305 4407 ft 286 kts 234°
2026-05-01 12:07 6.80602 3.36673 4095 ft 285 kts 234°
2026-05-01 12:07 6.79450 3.35051 3780 ft 283 kts 233°
2026-05-01 12:08 6.78235 3.33528 3448 ft 278 kts 217°
2026-05-01 12:08 6.76493 3.32774 3152 ft 270 kts 184°
2026-05-01 12:08 6.74681 3.32752 2794 ft 247 kts 180°
2026-05-01 12:08 6.73045 3.32726 2465 ft 221 kts 178°
2026-05-01 12:09 6.71614 3.32733 2303 ft 194 kts 178°
2026-05-01 12:09 6.70303 3.32748 2073 ft 185 kts 178°
2026-05-01 12:09 6.69056 3.32763 1884 ft 168 kts 178°
2026-05-01 12:09 6.67944 3.32777 1682 ft 153 kts 178°
2026-05-01 12:10 6.66911 3.32790 1469 ft 141 kts 178°
2026-05-01 12:10 6.65064 3.32814 1141 ft 133 kts 178°
2026-05-01 12:10 6.64127 3.32826 979 ft 132 kts 178°
2026-05-01 12:11 6.62252 3.32850 648 ft 135 kts 178°
2026-05-01 12:11 6.61312 3.32862 473 ft 134 kts 178°
2026-05-01 12:11 6.60523 3.32871 338 ft 135 kts 178°
2026-05-01 12:12 6.59600 3.32893 155 ft 133 kts 178°
2026-05-01 12:12 6.58787 3.32905 141 ft 88 kts 179°
2026-05-01 12:12 6.58391 3.32906 141 ft 28 kts 180°